Погода в Кадном

Россия / Тульская область     53°18′35″N   37°55′19″E
темп.,
°C
ветер,
м/с
пор.,
м/с
влажн.,
%
обл.,
%
осадки,
мм/ч
давл.,
гПа
погр.,
м
16 сентября, чт
чт1600:00+7зсз336577 0.0 101638
03:00+9ссз4858100 0.0 1016530
06:00+4сз33845 0.0 101844
09:00+8ссз45643 0.0 1018620
12:00+12ссз44445 0.0 10191222
15:00+14ссз44355 0.0 10181554
18:00+12сз23456 0.0 101845
21:00+7ссв337136 0.0 102053
17 сентября, пт
пт1700:00+6с2276100 0.0 102011
03:00+5с1179100 0.0 102010
06:00+5ссв2276100 0.0 102024
09:00+9св2258100 0.0 1019489
12:00+12св1148100 0.0 10191224
15:00+13ссв1145100 0.0 10181475
18:00+12св4545100 0.0 1018392
21:00+8всв4953100 0.0 1020403
18 сентября, сб
сб1800:00+6всв51156100 0.0 1021380
03:00+4всв496468 0.0 1021217
06:00+4всв51166100 0.0 1022270
09:00+8в71051100 0.0 1022750
12:00+12в7833100 0.0 10221223
15:00+13вюв6729100 0.0 10211417
18:00+11в5833100 0.0 1021405
21:00+9в61241100 0.0 1021399
19 сентября, вс
вс1900:00+9в71441100 0.0 1021492
03:00+9вюв61342100 0.0 1020586
06:00+6вюв61376100 1.4 1020542
09:00+5в71491100 7.3 1019475
12:00+6вюв81493100 6.1 1018585
15:00+6вюв71495100 10.4 1017594
18:00+6в61295100 1.8 1016575
21:00+7в51197100 3.4 1015575
20 сентября, пн
пн2000:00+7в61096100 0.8 1013540
03:00+7всв5996100 0.8 1012486
06:00+7св5997100 0.1 1012464
09:00+7св61096100 0.1 1012496
12:00+8всв71294100 0.0 1011515
15:00+8всв81395100 0.1 1010523
18:00+8всв81597100 3.2 1008515
21:00+10в71297100 13.0 1008560